CW1734 Weather Reports


time (UTC)temp
C
wind
direction
speed
KPH
gust
KPH
rain 1hr
cm
rain 24hr
cm
rain mn
cm
humidity
%
barometer
mb
20260506031904 11 48 9.7 19.3 0.00 0.00 0.00 76 1011.5
20260506031403 11 29 6.4 16.1 0.00 0.00 0.00 77 1011.5
20260506030404 11 59 6.4 11.3 0.00 0.00 0.00 77 1011.5
20260506025903 11 31 6.4 11.3 0.00 0.00 0.00 77 1011.6
20260506025403 11 72 8.0 12.9 0.00 0.00 0.00 78 1011.6
20260506024903 11 46 8.0 16.1 0.00 0.00 0.00 78 1011.6
20260506024403 11 27 8.0 12.9 0.00 0.00 0.00 78 1011.6
20260506023903 11 35 8.0 12.9 0.00 0.00 0.00 77 1011.6
20260506023404 11 38 6.4 12.9 0.00 0.00 0.00 77 1011.6
20260506022904 11 62 9.7 14.5 0.00 0.00 0.00 76 1011.6
20260506022404 11 39 8.0 16.1 0.00 0.00 0.00 76 1011.6
20260506021904 11 37 8.0 19.3 0.00 0.00 0.00 76 1011.6
20260506020904 11 47 6.4 12.9 0.00 0.00 0.00 75 1011.6
20260506020404 11 61 4.8 9.7 0.00 0.00 0.00 75 1011.6
20260506015903 11 44 3.2 8.0 0.00 0.00 0.00 75 1011.6
20260506015404 11 37 6.4 12.9 0.00 0.00 0.00 75 1011.6
20260506014403 11 43 4.8 11.3 0.00 0.00 0.00 74 1011.6
20260506013903 11 45 6.4 11.3 0.00 0.00 0.00 74 1011.6
20260506013403 11 39 8.0 16.1 0.00 0.00 0.00 74 1011.6
20260506012904 11 50 9.7 19.3 0.00 0.00 0.00 74 1011.6
20260506012404 11 59 6.4 20.9 0.00 0.00 0.00 74 1011.6
20260506011903 11 38 3.2 9.7 0.00 0.00 0.00 73 1011.6
20260506011404 12 46 4.8 9.7 0.00 0.00 0.00 73 1011.6
20260506010903 12 59 8.0 16.1 0.00 0.00 0.00 73 1011.6
20260506010403 12 49 4.8 16.1 0.00 0.00 0.00 72 1011.6
20260506005903 12 53 8.0 16.1 0.00 0.00 0.00 72 1011.6
20260506005403 12 41 8.0 19.3 0.00 0.00 0.00 72 1011.6
20260506004903 12 54 8.0 12.9 0.00 0.00 0.00 72 1011.5
20260506004404 12 42 6.4 19.3 0.00 0.00 0.00 71 1011.7
20260506003903 12 60 9.7 20.9 0.00 0.00 0.00 70 1011.7
20260506003404 12 59 11.3 19.3 0.00 0.00 0.00 70 1011.7
20260506002404 12 56 6.4 19.3 0.00 0.00 0.00 70 1011.7
20260506001904 12 75 11.3 20.9 0.00 0.00 0.00 71 1011.7
20260506001404 12 53 6.4 19.3 0.00 0.00 0.00 72 1011.6
20260506000904 12 53 4.8 11.3 0.00 0.00 0.00 73 1011.6
20260506000404 12 52 6.4 11.3 0.00 0.00 0.00 73 1011.6
20260505235904 12 62 3.2 8.0 0.00 0.00 0.00 73 1011.5
20260505235404 12 62 6.4 19.3 0.00 0.00 0.00 72 1011.5
20260505234904 12 52 8.0 20.9 0.00 0.00 0.00 73 1011.5
20260505233904 12 39 4.8 12.9 0.00 0.00 0.00 74 1011.5
20260505232404 12 52 4.8 11.3 0.00 0.00 0.00 76 1011.4
20260505231904 12 37 4.8 11.3 0.00 0.00 0.00 76 1011.3
20260505230903 12 37 6.4 9.7 0.00 0.00 0.00 75 1011.3
20260505230404 12 34 4.8 11.3 0.00 0.00 0.00 75 1011.3
20260505225904 12 31 4.8 11.3 0.00 0.00 0.00 74 1011.5
20260505225404 12 25 4.8 9.7 0.00 0.00 0.00 74 1011.5
20260505224904 12 22 4.8 12.9 0.00 0.00 0.00 74 1011.5
20260505224404 12 7 8.0 11.3 0.00 0.00 0.00 74 1011.5
20260505223404 12 0 4.8 8.0 0.00 0.00 0.00 74 1011.4
20260505222404 13 339 4.8 11.3 0.00 0.00 0.00 74 1011.4
20260505221904 13 346 4.8 11.3 0.00 0.00 0.00 73 1011.4
20260505221404 13 9 8.0 9.7 0.00 0.00 0.00 73 1011.4
20260505220904 13 350 6.4 9.7 0.00 0.00 0.00 73 1011.4
20260505220404 13 346 8.0 11.3 0.00 0.00 0.00 73 1011.4
20260505215903 13 0 6.4 12.9 0.00 0.00 0.00 73 1011.4
20260505214904 13 342 4.8 11.3 0.00 0.00 0.00 73 1011.4
20260505214404 13 355 4.8 8.0 0.00 0.00 0.00 73 1011.4
20260505213904 13 0 4.8 11.3 0.00 0.00 0.00 73 1011.4
20260505213403 13 16 4.8 11.3 0.00 0.00 0.00 73 1011.4
20260505212904 13 357 8.0 11.3 0.00 0.00 0.00 73 1011.4
20260505212403 13 8 4.8 11.3 0.00 0.00 0.00 73 1011.4
20260505211905 13 323 3.2 9.7 0.00 0.00 0.00 73 1011.4
20260505211404 13 340 6.4 11.3 0.00 0.00 0.00 74 1011.4
20260505210904 13 344 6.4 12.9 0.00 0.00 0.00 74 1011.4
20260505205904 13 336 4.8 8.0 0.00 0.00 0.00 74 1011.3
20260505205403 13 336 3.2 8.0 0.00 0.00 0.00 74 1011.3
20260505204904 13 333 4.8 9.7 0.00 0.00 0.00 74 1011.3
20260505204404 13 330 4.8 9.7 0.00 0.00 0.00 74 1011.3
20260505203904 13 328 4.8 9.7 0.00 0.00 0.00 74 1011.3
20260505203404 13 329 3.2 9.7 0.00 0.00 0.00 74 1011.3
20260505202404 13 352 4.8 12.9 0.00 0.00 0.00 74 1011.2
20260505201904 13 335 4.8 9.7 0.00 0.00 0.00 74 1011.2
20260505201403 13 336 4.8 9.7 0.00 0.00 0.00 73 1011.3
20260505200904 13 337 4.8 9.7 0.00 0.00 0.00 73 1011.0
20260505200403 13 339 8.0 11.3 0.00 0.00 0.00 73 1011.0
20260505195404 14 344 4.8 11.3 0.00 0.00 0.00 72 1011.0
20260505194903 14 329 4.8 9.7 0.00 0.00 0.00 72 1011.0
20260505194404 14 343 4.8 12.9 0.00 0.00 0.00 72 1011.0
20260505193903 14 341 9.7 12.9 0.00 0.00 0.00 72 1010.8
20260505193403 14 329 6.4 9.7 0.00 0.00 0.00 72 1010.8
20260505192904 14 333 4.8 9.7 0.00 0.00 0.00 72 1010.8
20260505192403 14 329 4.8 8.0 0.00 0.00 0.00 72 1010.8
20260505191904 14 337 4.8 8.0 0.00 0.00 0.00 72 1010.8
20260505191404 14 17 3.2 8.0 0.00 0.00 0.00 72 1010.8
20260505190903 14 339 3.2 4.8 0.00 0.00 0.00 71 1010.7
20260505190403 14 7 3.2 8.0 0.00 0.00 0.00 71 1010.7
20260505185903 14 356 3.2 8.0 0.00 0.00 0.00 70 1010.7
20260505185403 15 353 4.8 9.7 0.00 0.00 0.00 70 1010.7
20260505184903 15 358 3.2 8.0 0.00 0.00 0.00 70 1010.7
20260505184404 15 2 4.8 8.0 0.00 0.00 0.00 69 1010.5
20260505183904 15 343 4.8 8.0 0.00 0.00 0.00 69 1010.5
20260505183403 15 339 3.2 8.0 0.00 0.00 0.00 69 1010.5
20260505182404 15 339 4.8 8.0 0.00 0.00 0.00 69 1010.6
20260505181904 15 341 4.8 8.0 0.00 0.00 0.00 69 1010.6
20260505181403 15 16 3.2 8.0 0.00 0.00 0.00 68 1010.6
20260505175904 15 8 3.2 9.7 0.00 0.00 0.00 68 1010.6
20260505175404 15 7 4.8 8.0 0.00 0.00 0.00 68 1010.6
20260505174904 15 341 4.8 9.7 0.00 0.00 0.00 68 1010.6
20260505174404 15 346 4.8 9.7 0.00 0.00 0.00 67 1010.8
20260505173903 15 337 3.2 8.0 0.00 0.00 0.00 67 1010.8
20260505173403 15 8 1.6 8.0 0.00 0.00 0.00 67 1010.8
20260505172904 15 344 3.2 9.7 0.00 0.00 0.00 67 1010.8
20260505172404 15 349 4.8 8.0 0.00 0.00 0.00 66 1010.8
20260505171903 15 356 4.8 11.3 0.00 0.00 0.00 65 1010.8
20260505171404 15 0 4.8 12.9 0.00 0.00 0.00 65 1010.8
20260505170403 15 15 4.8 9.7 0.00 0.00 0.00 66 1010.8
20260505165904 15 4 8.0 12.9 0.00 0.00 0.00 66 1010.8
20260505165403 15 15 8.0 11.3 0.00 0.00 0.00 65 1010.8
20260505164903 15 0 4.8 11.3 0.00 0.00 0.00 65 1010.8
20260505164404 15 3 4.8 9.7 0.00 0.00 0.00 65 1010.7
20260505163904 16 71 6.4 14.5 0.00 0.00 0.00 66 1010.7
20260505163404 16 20 3.2 9.7 0.00 0.00 0.00 65 1010.7
20260505162903 16 36 3.2 11.3 0.00 0.00 0.00 64 1010.7
20260505162404 16 32 4.8 9.7 0.00 0.00 0.00 64 1010.7
20260505160903 16 357 4.8 9.7 0.00 0.00 0.00 65 1010.8
20260505160403 16 14 3.2 11.3 0.00 0.00 0.00 66 1010.8
20260505152904 16 337 4.8 11.3 0.00 0.00 0.00 63 1011.0
20260505152403 16 31 8.0 12.9 0.00 0.00 0.00 62 1010.9
20260505151904 16 10 3.2 8.0 0.00 0.00 0.00 62 1010.9
20260505151403 16 338 3.2 11.3 0.00 0.00 0.00 61 1011.2
20260505150904 16 46 4.8 9.7 0.00 0.00 0.00 61 1011.2
20260505150404 16 6 3.2 8.0 0.00 0.00 0.00 63 1011.2
20260505140403 16 37 8.0 9.7 0.00 0.00 0.00 64 1011.3
20260505124904 15 24 11.3 24.1 0.00 0.00 0.00 67 1011.7
20260505124404 15 321 11.3 22.5 0.00 0.00 0.00 67 1011.7
20260505123904 15 24 8.0 14.5 0.00 0.00 0.00 69 1011.7
20260505123403 15 351 14.5 22.5 0.00 0.00 0.00 69 1011.7
20260505122904 15 35 11.3 22.5 0.00 0.00 0.00 69 1011.6
20260505122404 15 18 11.3 19.3 0.00 0.00 0.00 68 1011.6
20260505121404 15 6 16.1 22.5 0.00 0.00 0.00 66 1011.6
20260505120904 15 16 12.9 22.5 0.00 0.00 0.00 66 1011.6
20260505115904 15 3 12.9 22.5 0.00 0.00 0.00 67 1011.6
20260505114904 15 327 12.9 22.5 0.00 0.00 0.00 67 1011.6
20260505114403 15 14 11.3 20.9 0.00 0.00 0.00 66 1011.6
20260505113403 15 25 14.5 27.4 0.00 0.00 0.00 66 1011.6
20260505112904 15 15 9.7 19.3 0.00 0.00 0.00 67 1011.8
20260505112403 15 8 11.3 24.1 0.00 0.00 0.00 64 1011.8
20260505111903 16 339 9.7 16.1 0.00 0.00 0.00 66 1011.8
20260505111404 15 28 16.1 24.1 0.00 0.00 0.00 66 1011.8
20260505110903 16 29 14.5 25.7 0.00 0.00 0.00 64 1011.8
20260505110403 16 66 11.3 24.1 0.00 0.00 0.00 66 1011.8
20260505101904 16 22 12.9 25.7 0.00 0.00 0.00 67 1012.1
20260505101403 15 29 9.7 19.3 0.00 0.00 0.00 70 1012.1
20260505100403 15 24 11.3 20.9 0.00 0.00 0.00 71 1012.1
20260505095404 15 344 11.3 24.1 0.00 0.00 0.00 74 1012.1
20260505094903 15 352 11.3 22.5 0.00 0.00 0.00 74 1012.1
20260505094403 15 7 12.9 20.9 0.00 0.00 0.00 74 1012.2
20260505093904 15 346 8.0 20.9 0.00 0.00 0.00 77 1012.2
20260505093404 14 355 9.7 16.1 0.00 0.00 0.00 77 1012.2
20260505092903 13 16 9.7 22.5 0.00 0.00 0.00 77 1012.2
20260505092403 14 343 11.3 19.3 0.00 0.00 0.00 75 1012.2
20260505091903 14 359 12.9 20.9 0.00 0.00 0.00 74 1012.2
20260505091403 15 347 11.3 20.9 0.00 0.00 0.00 75 1012.2
20260505090903 14 343 9.7 14.5 0.00 0.00 0.00 75 1012.2
20260505090403 14 27 9.7 16.1 0.00 0.00 0.00 76 1012.4
20260505085904 14 354 8.0 22.5 0.00 0.00 0.00 76 1012.4
20260505085403 14 52 9.7 16.1 0.00 0.00 0.00 77 1012.4
20260505084404 14 327 9.7 20.9 0.00 0.00 0.00 79 1012.4
20260505083403 13 356 8.0 19.3 0.00 0.00 0.00 80 1012.4
20260505082904 13 357 12.9 20.9 0.00 0.00 0.00 81 1012.4
20260505082403 13 343 11.3 22.5 0.00 0.00 0.00 82 1012.3
20260505081903 13 337 11.3 14.5 0.00 0.00 0.00 82 1012.3
20260505081403 13 323 8.0 19.3 0.00 0.00 0.00 82 1012.3
20260505080404 13 342 8.0 16.1 0.00 0.00 0.00 83 1012.3
20260505075404 12 14 8.0 11.3 0.00 0.00 0.00 85 1012.3
20260505074403 12 13 8.0 11.3 0.00 0.00 0.00 86 1012.3
20260505073903 12 13 4.8 8.0 0.00 0.00 0.00 87 1012.4
20260505073403 11 35 3.2 8.0 0.00 0.00 0.00 88 1012.4
20260505072903 11 12 4.8 9.7 0.00 0.00 0.00 88 1012.4
20260505072403 11 25 6.4 11.3 0.00 0.00 0.00 88 1012.4
20260505071904 11 13 6.4 12.9 0.00 0.00 0.00 88 1012.4
20260505070904 11 28 8.0 12.9 0.00 0.00 0.00 89 1012.4
20260505070403 11 38 9.7 12.9 0.00 0.00 0.00 88 1012.4
20260505065903 11 27 6.4 11.3 0.00 0.00 0.00 89 1012.4
20260505065404 11 8 8.0 12.9 0.00 0.00 0.00 89 1012.5
20260505064903 11 21 8.0 14.5 0.00 0.00 0.00 89 1012.5
20260505064403 11 18 8.0 11.3 0.00 0.00 0.00 89 1012.6
20260505063903 11 23 8.0 12.9 0.00 0.00 0.00 89 1012.6
20260505063403 11 35 3.2 9.7 0.00 0.00 0.00 89 1012.6
20260505062404 11 29 8.0 12.9 0.00 0.00 0.00 89 1012.6
20260505061904 11 19 8.0 11.3 0.00 0.00 0.00 89 1012.6
20260505060903 11 13 8.0 14.5 0.00 0.00 0.00 89 1012.5
20260505055904 11 27 8.0 12.9 0.00 0.00 0.00 89 1012.5
20260505055403 11 17 9.7 19.3 0.00 0.00 0.00 89 1012.5
20260505054904 11 354 9.7 16.1 0.00 0.00 0.00 89 1012.3
20260505054403 11 14 4.8 14.5 0.00 0.00 0.00 89 1012.3
20260505053903 11 15 8.0 11.3 0.00 0.00 0.00 89 1012.3
20260505052904 11 7 4.8 9.7 0.00 0.00 0.00 89 1012.3
20260505052404 11 26 4.8 9.7 0.00 0.00 0.00 89 1012.3
20260505051904 11 33 4.8 11.3 0.00 0.00 0.00 89 1012.2
20260505051403 11 22 4.8 9.7 0.00 0.00 0.00 89 1012.2
20260505050403 11 10 4.8 11.3 0.00 0.00 0.00 89 1012.2
20260505041403 12 19 8.0 11.3 0.00 0.00 0.00 89 1012.5
20260505040903 12 23 8.0 14.5 0.00 0.00 0.00 89 1012.5
20260505040403 12 13 4.8 9.7 0.00 0.00 0.00 89 1012.5
20260505035903 12 7 3.2 11.3 0.00 0.00 0.00 89 1012.5
20260505035403 12 21 4.8 9.7 0.00 0.00 0.00 89 1012.5
20260505034903 12 26 3.2 8.0 0.00 0.00 0.00 90 1012.5
20260505034403 12 9 6.4 11.3 0.00 0.00 0.00 90 1012.5
20260505033404 12 25 0.0 0.0 0.00 0.00 0.00 90 1012.5
20260505032903 12 25 0.0 0.0 0.00 0.00 0.00 90 1012.5
20260505032403 12 26 0.0 0.0 0.00 0.00 0.00 90 1012.5